Regional Weather Roundup
Issued by NWS Albany, NY

Home | Current Version | Previous Version | Graphics & Text | Print | Product List | Glossary Off
Versions: 1 2 3 4 5 6 7 8 9 10 11 12 13 14 15 16 17 18 19 20 21 22 23 24 25 26 27 28 29 30 31 32 33 34 35 36 37 38 39 40 41 42 43 44 45 46 47 48 49 50

760
ASUS41 KALY 300510
RWRALY

NEW YORK STATE HOURLY WEATHER ROUNDUP
NATIONAL WEATHER SERVICE ALBANY NY
100 AM EDT SUN APR 30 2017

NOTE: "FAIR" INDICATES FEW OR NO CLOUDS BELOW 12,000 FEET WITH NO
SIGNIFICANT WEATHER AND/OR NO OBSTRUCTIONS TO VISIBILITY.

NYZ032-033-038>043-046>054-057>066-NYZ062>081-082-084-300600-
EAST


CITY           SKY/WX    TMP DP  RH WIND       PRES   REMARKS
ALBANY         CLEAR     51  33  50 NW12G23   30.21R
GLENS FALLS    CLEAR     50  31  48 NE9       30.20R
POUGHKEEPSIE   CLEAR     59  49  69 NW6       30.13R
NEWBURGH       CLEAR     59  50  72 W9        30.16R
MONTGOMERY     CLEAR     55  49  80 W7        30.15R
WHITE PLAINS   CLEAR     64  50  60 W9        30.11S
ISLIP          MOCLDY    66  56  70 NW7       30.11R
NEW YORK CITY  CLOUDY    68  51  54 NW9       30.11S
CENTRAL PARK   CLOUDY    68  52  56 VRB5      30.15S
$$

NYZ005>009-017-018-044>046-055-056-300600-
CENTRAL


CITY           SKY/WX    TMP DP  RH WIND       PRES   REMARKS
FULTON         CLEAR     44  37  76 N10       30.25S
SYRACUSE       PTCLDY    44  34  67 NW3       30.24S
ROME           CLEAR     41  36  82 CALM      30.26R
ELMIRA         PTCLDY    52  38  58 NE9       30.21F
BINGHAMTON     MOCLDY    47  35  63 N9        30.22S
MONTICELLO     CLEAR     54  43  66 NW7       30.19R
$$

NYZ026>034-041>043-087-300600-
NORTH


CITY           SKY/WX    TMP DP  RH WIND       PRES   REMARKS
WATERTOWN      CLEAR     41  29  62 N10       30.29S
FORT DRUM      NOT AVBL
OGDENSBURG     FAIR      39  29  67 N3        30.32R
MASSENA        CLEAR     40  25  55 NW3       30.33R
SARANAC LAKE   CLEAR     35  24  64 CALM      30.24R
PLATTSBURGH    CLEAR     42  23  46 NW8       30.26R
$$

NYZ001>004-010>016-019>021-085-300600-
WEST


CITY           SKY/WX    TMP DP  RH WIND       PRES   REMARKS
NIAGARA FALLS  PTCLDY    44  32  62 NE5       30.24F
BUFFALO        CLOUDY    43  31  62 NE6       30.25R
DUNKIRK        CLOUDY    46  38  73 NE9       30.24S
JAMESTOWN      CLOUDY    46  39  76 NE8       30.20R
WELLSVILLE     CLEAR     49  44  83 NE5       30.22F
ROCHESTER      PTCLDY    45  33  63 CALM      30.27R
PENN YAN       CLEAR     46  36  68 NW6       30.24S
$$

             KEY
       WCI = WIND CHILL INDEX
       VSB = VISIBILITY
       HX  = HEAT INDEX
$$




USA.gov is the U.S. government's official web portal to all federal, state and local government web resources and services.